Weather History for KNYC - February, 2014

Change the Weather History Date:

Friday, February 7, 2014

  Actual Average Record
Temperature  
Mean Temperature 28 °F 34 °F  
Max Temperature 32 °F 40 °F 54 °F (1938)
Min Temperature 24 °F 28 °F 1 °F (1910)
Degree Days  
Heating Degree Days 37 31  
Month to date heating degree days 215 220  
Since 1 July heating degree days 2958 2909  
Cooling Degree Days 0 0  
Month to date cooling degree days 0 0  
Year to date cooling degree days 0 0  
Moisture  
Dew Point 13 °F    
Average Humidity 53    
Maximum Humidity 63    
Minimum Humidity 43    
Precipitation  
Precipitation 0.00 in 0.11 in 2.96 in (1941)
Month to date precipitation 2.60 0.76  
Year to date precipitation 5.39 4.41  
Snow  
Snow 0.00 in 0.30 in 12.50 in (1967)
Month to date snowfall 12.0 2.3  
Since 1 July snowfall 40.3 14.4  
Snow Depth 9.00 in    
Sea Level Pressure  
Sea Level Pressure 30.27 in    
Wind  
Wind Speed 7 mph (West)    
Max Wind Speed 15 mph    
Max Gust Speed 24 mph    
Visibility 10 miles    
Events      
T = Trace of Precipitation, MM = Missing Value Source: NWS Daily Summary

Daily Weather History Graph

Daily Weather History Graph

Search for Another Location

Airport or City:

Trip Planner

Search our weather history database for the weather conditions in past years. The results will help you decide how hot, cold, wet, or windy it might be!

Date:

Astronomy

Feb. 07, 2014 Rise Set
Actual Time 6:59 AM EST 5:20 PM EST
Civil Twilight 6:31 AM EST 5:49 PM EST
Nautical Twilight 5:58 AM EST 6:21 PM EST
Astronomical Twilight 5:26 AM EST 6:53 PM EST
Moon 11:30 AM EST (2/7) 1:13 AM EST (2/7)
Length of Visible Light 11h 18m
Length of Day
10h 21m
First Quarter, 59% of the Moon is Illuminated
Feb 7
First Quarter
Feb 14
Full
Feb 22
Last Quarter
Mar 1
New
Mar 8
First Quarter

Hourly Weather History & Observations

Time (EST) Temp. Windchill Dew Point Humidity Pressure Visibility Wind Dir Wind Speed Gust Speed Precip Events Conditions
12:51 AM 26.1 °F 21.9 °F 16.0 °F 66% 30.25 in 10.0 mi Variable 3.5 mph - N/A   Clear
1:51 AM 26.1 °F 18.4 °F 15.1 °F 63% 30.23 in 10.0 mi West 6.9 mph - N/A   Clear
2:51 AM 26.1 °F - 12.9 °F 58% 30.23 in 10.0 mi North - - N/A   Clear
3:51 AM 26.1 °F 18.4 °F 12.0 °F 55% 30.25 in 10.0 mi Variable 6.9 mph - N/A   Partly Cloudy
4:51 AM 25.0 °F 18.1 °F 12.0 °F 58% 30.26 in 10.0 mi WNW 5.8 mph - N/A   Clear
5:51 AM 24.1 °F 12.5 °F 10.9 °F 57% 30.29 in 10.0 mi WNW 12.7 mph 16.1 mph N/A   Clear
6:51 AM 24.1 °F 17.0 °F 12.0 °F 60% 30.28 in 10.0 mi West 5.8 mph - N/A   Clear
7:51 AM 24.1 °F 16.0 °F 12.0 °F 60% 30.31 in 10.0 mi Variable 6.9 mph - N/A   Clear
8:51 AM 25.0 °F - 12.0 °F 58% 30.33 in 9.0 mi North - - N/A   Clear
9:51 AM 26.1 °F 19.4 °F 12.0 °F 55% 30.32 in 10.0 mi Variable 5.8 mph - N/A   Clear
10:51 AM 27.0 °F 21.6 °F 12.0 °F 53% 30.31 in 10.0 mi Variable 4.6 mph - N/A   Clear
11:51 AM 28.9 °F 19.8 °F 10.9 °F 47% 30.28 in 10.0 mi WNW 10.4 mph - N/A   Clear
12:51 PM 30.9 °F 22.8 °F 10.0 °F 42% 30.25 in 10.0 mi West 9.2 mph 18.4 mph N/A   Clear
1:51 PM 30.9 °F 26.2 °F 12.0 °F 46% 30.23 in 10.0 mi Variable 4.6 mph - N/A   Clear
2:51 PM 32.0 °F 28.7 °F 12.9 °F 45% 30.23 in 10.0 mi Variable 3.5 mph - N/A   Clear
3:51 PM 32.0 °F 28.7 °F 15.1 °F 50% 30.22 in 10.0 mi Variable 3.5 mph - N/A   Clear
4:51 PM 32.0 °F 28.7 °F 12.9 °F 45% 30.22 in 10.0 mi Variable 3.5 mph 16.1 mph N/A   Clear
5:51 PM 30.9 °F 22.2 °F 15.1 °F 52% 30.25 in 10.0 mi West 10.4 mph - N/A   Clear
6:51 PM 30.0 °F 21.7 °F 15.1 °F 54% 30.27 in 10.0 mi WSW 9.2 mph - N/A   Clear
7:51 PM 30.0 °F 23.2 °F 14.0 °F 51% 30.26 in 10.0 mi West 6.9 mph 16.1 mph N/A   Clear
8:51 PM 30.0 °F 21.7 °F 14.0 °F 51% 30.27 in 10.0 mi West 9.2 mph - N/A   Clear
9:51 PM 30.0 °F 21.1 °F 14.0 °F 51% 30.28 in 10.0 mi West 10.4 mph - N/A   Clear
10:51 PM 28.9 °F 23.9 °F 12.9 °F 51% 30.28 in 10.0 mi WNW 4.6 mph - N/A   Clear
11:51 PM 28.0 °F 20.8 °F 10.0 °F 47% 30.28 in 10.0 mi WNW 6.9 mph 17.3 mph N/A   Clear